COSMOS 1229

Satellite information

Favourite Embed

Satellite Type and Status

PAYLOADIN ORBIT

Key statistics

Satellite COSMOS 1229 at a glance.

Uptime

16269

Days in orbit

Revolutions

≈ 12.6

Per day

Orbit

LEO

Low Earth Orbit

Inclination

74.0

Latest

Satellite identification and parameters

Extended collection of information and parameters for COSMOS 1229.

Object identification

Identified? True

Debris? False

Object name: COSMOS 1229

International designator: 1980-102B

Object number (NORAD): 12108

Object ID (CCSDS): 12108

Country: COMMONWEALTH OF INDEPENDENT STATES (CIS)

Current information (Y/N): Y

RCS size: MEDIUM

Orbital parameters

Period: 114.639 minutes

Inclination: 73.9936 deg

SMA: 7817.153 km

Apoapsis: 1464.356 km

Periapsis: 1413.681 km

RAAN: 134.4508 deg

Eccentricy: 0.0032413

Argument of periapsis: 271.2903 deg

Mean anomaly: 150.3845 deg

Mean motion: 12.56116186 rev/day

Mean motion (dot): -0.00000025 rev/day2

B* drag term: -0.000053082 1/REarth

Two-line elements (TLE)

Creation date: July 9, 2025, 2:22 a.m.

Reference frame: TEME

Reference center: EARTH

Epoch: July 8, 2025, 8:42 p.m. UTC

TLE line 0: 0 COSMOS 1229

TLE line 1: 1 12108U 80102B 25189.86269948 -.00000025 00000-0 -53082-4 0 9991

TLE line 2: 2 12108 73.9936 134.4508 0032413 271.2903 150.3845 12.56116186 42305

Live tracking on map

Real-time ground track for satellite COSMOS 1229.

In-orbit conjunctions

There are no conjunctions computed for COSMOS 1229, at the moment. Check back to stay up to date, as we update our databases every day.

Go to all conjunctions

Associated space launch

Military communications satellites

COSMOS 1229 was lifted into orbit during the mission ‘Kosmos-3M | Strela-1M 201-208’, on board a Kosmos-3M space rocket.

The launch took place on Dec. 23, 1980, 10:48 p.m. from 132/1 (132L).

For more information about the launch, click the button.

Launch to space Kosmos-3M | Strela-1M 201-208
Kosmos-3M | Strela-1M 201-208

Agency: N/A

Status: Launch Successful

Launch date: Dec. 23, 1980, 10:48 p.m. UTC

Rocket: Kosmos-3M

Launch pad: 132/1 (132L)

Location: Plesetsk Cosmodrome, Russian Federation

...

Latest news about this satellite

There are no fresh news available about this satellite. Check back as we update our databases every day.


Newsletter sign-up

Weekly statistics, charts and insights to help you stay on top of the space industry.